Delaware, OH

9:00 AM EDT on August 23, 2017 (GMT -0400)
Delaware Municipal

Weather History for KDLZ - January, 2013

Change the Weather History Date:

Friday, January 11, 2013

  Actual Average Record
Temperature  
Mean Temperature 47 °F -  
Max Temperature 57 °F 30 °F 59 °F (2017)
Min Temperature 37 °F 13 °F -11 °F (1982)
Degree Days  
Heating Degree Days 18    
Moisture  
Dew Point 43 °F    
Average Humidity 85    
Maximum Humidity 100    
Minimum Humidity 70    
Precipitation  
Precipitation 0.28 in - - ()
Sea Level Pressure  
Sea Level Pressure 29.97 in    
Wind  
Wind Speed 9 mph (South)    
Max Wind Speed 20 mph    
Max Gust Speed 26 mph    
Visibility 9 miles    
Events Rain    
Averages and records for this station are not official NWS values.
T = Trace of Precipitation, MM = Missing Value Source: NWS Daily Summary

Daily Weather History Graph

Daily Weather History Graph

Search for Another Location

Airport or City:

Trip Planner

Search our weather history database for the weather conditions in past years. The results will help you decide how hot, cold, wet, or windy it might be!

Date:

Astronomy

Jan. 11, 2013 Rise Set
Actual Time 7:54 AM EST 5:26 PM EST
Civil Twilight 7:24 AM EST 5:57 PM EST
Nautical Twilight 6:50 AM EST 6:30 PM EST
Astronomical Twilight 6:17 AM EST 7:03 PM EST
Moon 7:26 AM EST (1/11) 5:43 PM EST (1/11)
Length of Visible Light 10h 32m
Length of Day
9h 32m
Waning Crescent, 0% of the Moon is Illuminated
Jan 11
Waning Crescent
Jan 11
New
Jan 18
First Quarter
Jan 26
Full
Feb 3
Last Quarter

Hourly Weather History & Observations

Time (EST) Temp. Windchill Dew Point Humidity Pressure Visibility Wind Dir Wind Speed Gust Speed Precip Events Conditions
12:02 AM 37.4 °F 31.4 °F 30.2 °F 75% 30.16 in 10.0 mi SE 8.1 mph - N/A   Mostly Cloudy
12:22 AM 37.4 °F 33.8 °F 30.2 °F 75% 30.15 in 10.0 mi SE 4.6 mph - N/A   Overcast
1:02 AM 37.4 °F 33.8 °F 30.2 °F 75% 30.14 in 10.0 mi SE 4.6 mph - N/A   Overcast
1:23 AM 37.4 °F 32.8 °F 30.2 °F 75% 30.13 in 10.0 mi ESE 5.8 mph - N/A   Overcast
1:42 AM 37.4 °F - 30.2 °F 75% 30.13 in 10.0 mi Calm Calm - N/A   Overcast
2:02 AM 37.4 °F 33.8 °F 32.0 °F 81% 30.12 in 10.0 mi SE 4.6 mph - N/A   Overcast
2:23 AM 39.2 °F 34.2 °F 32.0 °F 75% 30.12 in 10.0 mi SE 6.9 mph - N/A   Light Drizzle
2:42 AM 41.0 °F 35.8 °F 32.0 °F 70% 30.11 in 10.0 mi ESE 8.1 mph - N/A   Overcast
3:02 AM 41.0 °F 35.2 °F 32.0 °F 70% 30.09 in 10.0 mi ESE 9.2 mph - N/A   Overcast
3:22 AM 41.0 °F 35.8 °F 32.0 °F 70% 30.09 in 10.0 mi SE 8.1 mph - N/A   Overcast
3:42 AM 41.0 °F 37.1 °F 32.0 °F 70% 30.10 in 7.0 mi South 5.8 mph - N/A Rain Rain
4:02 AM 39.2 °F 33.0 °F 33.8 °F 81% 30.07 in 4.0 mi SE 9.2 mph - 0.01 in Rain Heavy Rain
4:22 AM 37.4 °F 30.3 °F 35.6 °F 93% 30.04 in 10.0 mi SE 10.4 mph - 0.05 in Rain Light Rain
4:42 AM 41.0 °F 34.7 °F 35.6 °F 81% 30.03 in 10.0 mi SE 10.4 mph - 0.05 in   Overcast
5:02 AM 41.0 °F 34.7 °F 35.6 °F 81% 30.01 in 10.0 mi SE 10.4 mph - N/A   Overcast
5:22 AM 41.0 °F 34.7 °F 37.4 °F 87% 30.01 in 10.0 mi SE 10.4 mph - N/A   Mostly Cloudy
5:42 AM 42.8 °F 36.6 °F 37.4 °F 81% 29.99 in 10.0 mi SE 11.5 mph - N/A   Scattered Clouds
6:02 AM 42.8 °F 35.4 °F 39.2 °F 87% 29.98 in 10.0 mi SE 15.0 mph 19.6 mph N/A   Mostly Cloudy
6:22 AM 44.6 °F 37.4 °F 41.0 °F 87% 29.98 in 10.0 mi SSE 16.1 mph 20.7 mph N/A   Drizzle
6:42 AM 42.8 °F 35.4 °F 41.0 °F 93% 29.97 in 7.0 mi SSE 15.0 mph - 0.02 in Rain Rain
7:02 AM 44.6 °F 37.4 °F 42.8 °F 93% 29.95 in 10.0 mi SSE 16.1 mph 20.7 mph N/A   Overcast
7:22 AM 44.6 °F 37.8 °F 42.8 °F 93% 29.95 in 10.0 mi SSE 15.0 mph - N/A   Overcast
8:03 AM 44.6 °F 38.4 °F 42.8 °F 93% 29.96 in 4.0 mi SSE 12.7 mph - 0.01 in Rain Rain
8:22 AM 44.6 °F 39.2 °F 44.6 °F 100% 29.95 in 7.0 mi SSE 10.4 mph - 0.06 in Rain Light Rain
8:42 AM 44.6 °F 40.2 °F 42.8 °F 93% 29.94 in 5.0 mi SSE 8.1 mph - 0.13 in Rain Rain
9:03 AM 44.6 °F 39.2 °F 44.6 °F 100% 29.93 in 2.5 mi SSE 10.4 mph - 0.01 in Rain Rain
9:22 AM 46.4 °F 41.9 °F 44.6 °F 93% 29.96 in 2.5 mi SSW 9.2 mph - 0.06 in Rain Rain
9:42 AM 46.4 °F 40.4 °F 46.4 °F 100% 29.95 in 10.0 mi South 13.8 mph 17.3 mph 0.06 in   Light Drizzle
10:03 AM 46.4 °F 40.7 °F 46.4 °F 100% 29.94 in 10.0 mi South 12.7 mph 17.3 mph N/A   Overcast
10:22 AM 48.2 °F - 46.4 °F 93% 29.92 in 10.0 mi South 17.3 mph - N/A Rain Light Rain
10:42 AM 48.2 °F - 46.4 °F 93% 29.91 in 10.0 mi SSE 19.6 mph 24.2 mph 0.02 in Rain Rain
11:02 AM 50.0 °F - 46.4 °F 87% 29.91 in 10.0 mi South 13.8 mph - N/A   Overcast
11:22 AM 50.0 °F - 46.4 °F 87% 29.90 in 10.0 mi South 17.3 mph 24.2 mph N/A   Overcast
11:42 AM 51.8 °F - 50.0 °F 94% 29.90 in 10.0 mi South 15.0 mph 26.5 mph N/A   Scattered Clouds
12:02 PM 53.6 °F - 50.0 °F 88% 29.90 in 10.0 mi SSW 16.1 mph 21.9 mph N/A   Scattered Clouds
12:22 PM 53.6 °F - 50.0 °F 88% 29.90 in 10.0 mi SSW 16.1 mph 24.2 mph N/A   Mostly Cloudy
12:42 PM 53.6 °F - 50.0 °F 88% 29.89 in 10.0 mi SSW 17.3 mph 24.2 mph N/A   Mostly Cloudy
1:22 PM 55.4 °F - 50.0 °F 82% 29.90 in 10.0 mi SSW 12.7 mph 18.4 mph N/A   Mostly Cloudy
1:42 PM 55.4 °F - 50.0 °F 82% 29.90 in 10.0 mi SW 11.5 mph 16.1 mph N/A   Mostly Cloudy
2:02 PM 55.4 °F - 50.0 °F 82% 29.90 in 10.0 mi SW 13.8 mph 19.6 mph N/A   Overcast
2:22 PM 55.4 °F - 51.8 °F 88% 29.90 in 10.0 mi SW 11.5 mph 17.3 mph N/A   Overcast
2:42 PM 57.2 °F - 50.0 °F 77% 29.90 in 10.0 mi SW 10.4 mph 17.3 mph N/A   Overcast
3:02 PM 57.2 °F - 50.0 °F 77% 29.91 in 10.0 mi SW 13.8 mph 17.3 mph N/A   Overcast
3:22 PM 57.2 °F - 50.0 °F 77% 29.90 in 10.0 mi SW 10.4 mph - N/A   Mostly Cloudy
3:43 PM 55.4 °F - 48.2 °F 77% 29.92 in 10.0 mi SW 11.5 mph - N/A   Clear
4:02 PM 55.4 °F - 48.2 °F 77% 29.92 in 10.0 mi SW 10.4 mph - N/A   Mostly Cloudy
4:22 PM 55.4 °F - 46.4 °F 72% 29.93 in 10.0 mi SW 11.5 mph - N/A   Mostly Cloudy
4:43 PM 55.4 °F - 46.4 °F 72% 29.93 in 10.0 mi SW 8.1 mph - N/A   Mostly Cloudy
5:02 PM 53.6 °F - 46.4 °F 77% 29.94 in 10.0 mi SW 9.2 mph - N/A   Mostly Cloudy
5:22 PM 53.6 °F - 46.4 °F 77% 29.94 in 10.0 mi SSW 6.9 mph - N/A   Scattered Clouds
5:43 PM 51.8 °F - 46.4 °F 82% 29.94 in 10.0 mi SSW 4.6 mph - N/A   Clear
6:02 PM 51.8 °F - 44.6 °F 76% 29.95 in 10.0 mi SSW 5.8 mph - N/A   Scattered Clouds
6:22 PM 51.8 °F - 44.6 °F 76% 29.95 in 10.0 mi SW 3.5 mph - N/A   Scattered Clouds
6:42 PM 50.0 °F - 44.6 °F 82% 29.95 in 10.0 mi South 4.6 mph - N/A   Clear
7:02 PM 50.0 °F - 44.6 °F 82% 29.95 in 10.0 mi South 5.8 mph - N/A   Clear
7:22 PM 48.2 °F - 44.6 °F 87% 29.96 in 10.0 mi South 4.6 mph - N/A   Clear
7:42 PM 48.2 °F - 44.6 °F 87% 29.95 in 10.0 mi SSE 5.8 mph - N/A   Clear
8:22 PM 48.2 °F - 44.6 °F 87% 29.96 in 10.0 mi South 4.6 mph - N/A   Clear
8:42 PM 46.4 °F 43.5 °F 44.6 °F 93% 29.96 in 10.0 mi South 5.8 mph - N/A   Clear
9:02 PM 46.4 °F 43.5 °F 44.6 °F 93% 29.96 in 10.0 mi South 5.8 mph - N/A   Clear
9:23 PM 48.2 °F - 44.6 °F 87% 29.96 in 10.0 mi South 5.8 mph - N/A   Clear
9:42 PM 48.2 °F - 44.6 °F 87% 29.96 in 10.0 mi South 5.8 mph - N/A   Clear
10:02 PM 46.4 °F 43.5 °F 44.6 °F 93% 29.96 in 10.0 mi South 5.8 mph - N/A   Clear
10:23 PM 46.4 °F 43.5 °F 44.6 °F 93% 29.95 in 7.0 mi South 5.8 mph - N/A   Clear
10:42 PM 46.4 °F 42.4 °F 44.6 °F 93% 29.95 in 10.0 mi SSE 8.1 mph - N/A   Clear
11:02 PM 46.4 °F 42.9 °F 44.6 °F 93% 29.95 in 10.0 mi South 6.9 mph - N/A   Clear
11:23 PM 48.2 °F - 44.6 °F 87% 29.95 in 10.0 mi South 8.1 mph - N/A   Clear
11:42 PM 48.2 °F - 44.6 °F 87% 29.95 in 10.0 mi South 9.2 mph - N/A   Clear